TimeEDT,TemperatureF,Dew PointF,Humidity,Sea Level PressureIn,VisibilityMPH,Wind Direction,Wind SpeedMPH,Gust SpeedMPH,PrecipitationIn,Events,Conditions,WindDirDegrees,DateUTC
12:15 AM,72.9,72.9,100,30.02,7.0,Calm,Calm,-,N/A,,Clear,0,2013-07-11 04:15:00
12:35 AM,72.9,72.9,100,30.01,5.0,Calm,Calm,-,N/A,,Clear,0,2013-07-11 04:35:00
12:55 AM,72.9,72.9,100,30.00,7.0,Calm,Calm,-,N/A,,Clear,0,2013-07-11 04:55:00
1:15 AM,72.9,72.9,100,30.00,7.0,SSE,3.5,-,N/A,,Clear,160,2013-07-11 05:15:00
1:35 AM,72.9,72.9,100,29.99,7.0,SSE,3.5,-,N/A,,Clear,150,2013-07-11 05:35:00
1:55 AM,72.9,72.9,100,29.98,7.0,SSE,5.8,-,N/A,,Clear,150,2013-07-11 05:55:00
2:15 AM,73.2,73.2,100,29.98,10.0,South,3.5,-,N/A,,Clear,180,2013-07-11 06:15:00
2:35 AM,72.9,72.9,100,29.98,10.0,South,3.5,-,N/A,,Clear,190,2013-07-11 06:35:00
2:55 AM,72.5,72.5,100,29.99,10.0,South,3.5,-,N/A,,Scattered Clouds,180,2013-07-11 06:55:00
3:15 AM,72.3,72.3,100,29.98,7.0,SSE,3.5,-,N/A,,Mostly Cloudy,160,2013-07-11 07:15:00
3:35 AM,72.7,72.7,100,30.00,10.0,SSW,5.8,-,N/A,,Overcast,200,2013-07-11 07:35:00
3:55 AM,72.5,72.5,100,29.99,10.0,South,8.1,-,N/A,,Overcast,190,2013-07-11 07:55:00
4:15 AM,72.1,72.1,100,30.00,10.0,SSW,8.1,-,N/A,,Overcast,200,2013-07-11 08:15:00
4:35 AM,72.1,72.1,100,30.00,10.0,SSW,6.9,-,N/A,,Overcast,200,2013-07-11 08:35:00
4:55 AM,72.0,72.0,100,30.00,10.0,SSW,8.1,-,N/A,,Overcast,210,2013-07-11 08:55:00
5:15 AM,72.1,72.1,100,30.00,7.0,SSW,5.8,-,0.02,Rain,Heavy Rain,200,2013-07-11 09:15:00
5:35 AM,72.5,72.5,100,30.00,7.0,South,4.6,-,0.03,,Mostly Cloudy,190,2013-07-11 09:35:00
5:55 AM,72.1,72.1,100,30.00,7.0,SSW,3.5,-,0.03,,Mostly Cloudy,200,2013-07-11 09:55:00
6:15 AM,72.1,72.1,100,30.01,7.0,South,5.8,-,N/A,,Overcast,190,2013-07-11 10:15:00
6:35 AM,72.5,72.5,100,30.01,10.0,South,5.8,-,N/A,,Mostly Cloudy,190,2013-07-11 10:35:00
6:55 AM,72.7,72.3,99,30.01,10.0,South,3.5,-,N/A,,Scattered Clouds,190,2013-07-11 10:55:00
7:15 AM,72.9,72.1,98,30.01,10.0,South,5.8,-,N/A,,Scattered Clouds,190,2013-07-11 11:15:00
7:35 AM,73.2,72.5,98,30.01,10.0,South,5.8,-,N/A,,Scattered Clouds,190,2013-07-11 11:35:00
7:55 AM,73.4,72.5,97,30.02,7.0,SSW,6.9,-,N/A,,Scattered Clouds,200,2013-07-11 11:55:00
8:15 AM,73.4,72.5,97,30.02,5.0,SSW,5.8,-,N/A,,Mostly Cloudy,210,2013-07-11 12:15:00
8:35 AM,73.6,72.7,97,30.02,5.0,SSW,6.9,-,N/A,,Mostly Cloudy,210,2013-07-11 12:35:00
8:55 AM,74.3,72.5,94,30.01,7.0,SSW,6.9,-,N/A,,Scattered Clouds,200,2013-07-11 12:55:00
9:15 AM,74.8,72.3,92,30.01,7.0,SSW,9.2,-,N/A,,Scattered Clouds,200,2013-07-11 13:15:00
9:35 AM,74.8,72.3,92,30.01,7.0,SSW,6.9,-,N/A,,Mostly Cloudy,210,2013-07-11 13:35:00
9:55 AM,75.0,72.0,90,30.01,10.0,SSW,6.9,-,N/A,,Mostly Cloudy,210,2013-07-11 13:55:00
10:15 AM,75.2,72.0,90,30.01,10.0,SSW,6.9,-,N/A,,Overcast,210,2013-07-11 14:15:00
10:35 AM,74.8,72.7,93,30.01,7.0,SSW,4.6,-,N/A,Rain,Light Rain,210,2013-07-11 14:35:00
10:55 AM,74.8,73.0,94,30.02,5.0,SSW,5.8,-,0.01,Rain,Rain,200,2013-07-11 14:55:00
11:15 AM,74.7,73.2,95,30.02,4.0,South,5.8,-,0.02,Rain,Rain,190,2013-07-11 15:15:00
11:35 AM,75.0,73.6,95,30.02,5.0,South,5.8,-,0.02,,Scattered Clouds,190,2013-07-11 15:35:00
11:55 AM,75.7,73.8,94,30.02,7.0,SW,4.6,-,0.02,,Scattered Clouds,220,2013-07-11 15:55:00
12:15 PM,76.5,73.4,90,30.01,10.0,SSW,5.8,-,N/A,,Scattered Clouds,200,2013-07-11 16:15:00
12:35 PM,76.6,73.0,89,30.01,10.0,Calm,Calm,-,N/A,,Mostly Cloudy,0,2013-07-11 16:35:00
12:55 PM,75.4,73.9,95,30.01,2.5,North,4.6,-,0.11,Rain,Heavy Rain,350,2013-07-11 16:55:00
1:15 PM,73.4,72.9,98,30.01,0.8,NNW,3.5,-,0.48,Rain,Heavy Rain,340,2013-07-11 17:15:00
1:35 PM,72.7,72.5,99,30.00,7.0,Calm,Calm,-,0.62,Rain,Light Rain,0,2013-07-11 17:35:00
1:55 PM,73.2,73.2,100,29.99,5.0,Calm,Calm,-,0.64,Rain,Heavy Rain,0,2013-07-11 17:55:00
2:15 PM,73.4,73.4,100,29.98,5.0,Calm,Calm,-,0.14,Rain,Light Rain,0,2013-07-11 18:15:00
2:35 PM,73.6,73.6,100,29.97,10.0,Calm,Calm,-,0.15,,Clear,0,2013-07-11 18:35:00
2:55 PM,74.3,74.3,100,29.96,10.0,Calm,Calm,-,0.15,,Clear,0,2013-07-11 18:55:00
3:15 PM,74.5,74.5,100,29.96,10.0,Calm,Calm,-,N/A,,Clear,0,2013-07-11 19:15:00
3:35 PM,75.2,75.2,100,29.96,7.0,Calm,Calm,-,N/A,Rain,Rain,0,2013-07-11 19:35:00
3:55 PM,75.2,75.2,100,29.96,7.0,Calm,Calm,-,0.01,Rain,Light Rain,0,2013-07-11 19:55:00
4:15 PM,75.6,75.6,100,29.95,7.0,Calm,Calm,-,N/A,Rain,Light Rain,0,2013-07-11 20:15:00
4:35 PM,75.4,75.4,100,29.95,7.0,South,3.5,-,0.01,Rain,Light Rain,180,2013-07-11 20:35:00
4:55 PM,75.6,74.8,98,29.94,7.0,Calm,Calm,-,0.01,Rain,Light Rain,0,2013-07-11 20:55:00
5:15 PM,75.7,74.5,96,29.94,7.0,South,4.6,-,0.01,Rain,Light Rain,180,2013-07-11 21:15:00
5:35 PM,76.1,74.1,94,29.95,10.0,South,4.6,-,0.01,Rain,Light Rain,180,2013-07-11 21:35:00
5:55 PM,76.1,73.8,92,29.95,10.0,SSE,4.6,-,0.01,,Clear,160,2013-07-11 21:55:00
6:15 PM,76.1,73.8,92,29.94,10.0,SE,3.5,-,N/A,,Clear,140,2013-07-11 22:15:00
6:35 PM,76.1,73.9,93,29.94,10.0,SSW,4.6,-,N/A,,Clear,210,2013-07-11 22:35:00
6:55 PM,75.4,74.3,96,29.95,7.0,Calm,Calm,-,N/A,,Clear,0,2013-07-11 22:55:00
7:15 PM,75.2,74.3,97,29.95,7.0,SE,3.5,-,N/A,,Scattered Clouds,140,2013-07-11 23:15:00
7:35 PM,75.2,74.3,97,29.94,7.0,Calm,Calm,-,N/A,,Scattered Clouds,0,2013-07-11 23:35:00
7:55 PM,75.2,74.1,96,29.94,5.0,South,4.6,-,N/A,,Scattered Clouds,180,2013-07-11 23:55:00
8:15 PM,74.3,73.6,98,29.93,5.0,Calm,Calm,-,N/A,,Scattered Clouds,0,2013-07-12 00:15:00
8:35 PM,74.1,73.6,98,29.93,4.0,Calm,Calm,-,N/A,,Clear,0,2013-07-12 00:35:00
8:55 PM,74.1,73.6,98,29.94,7.0,SW,4.6,-,N/A,,Clear,220,2013-07-12 00:55:00
9:15 PM,74.3,73.6,98,29.95,7.0,SSW,4.6,-,N/A,,Scattered Clouds,210,2013-07-12 01:15:00
9:35 PM,73.8,73.4,99,29.95,7.0,SW,4.6,-,N/A,,Mostly Cloudy,220,2013-07-12 01:35:00
9:55 PM,73.8,73.0,98,29.96,7.0,SSW,3.5,-,N/A,Rain,Light Rain,210,2013-07-12 01:55:00
10:15 PM,73.4,72.9,98,29.97,5.0,SSW,3.5,-,0.01,Rain,Heavy Rain,200,2013-07-12 02:15:00
10:35 PM,73.0,72.7,99,29.96,4.0,South,4.6,-,0.05,Rain,Rain,180,2013-07-12 02:35:00
10:55 PM,72.5,72.5,100,29.95,4.0,South,13.8,19.6,0.13,Rain,Heavy Rain,180,2013-07-12 02:55:00
11:15 PM,71.2,71.2,100,29.92,7.0,South,13.8,19.6,0.03,Rain,Light Rain,180,2013-07-12 03:15:00
11:35 PM,69.4,69.4,100,29.92,10.0,SE,5.8,-,0.03,Rain,Light Rain,140,2013-07-12 03:35:00
11:55 PM,69.8,69.8,100,29.96,10.0,NW,5.8,-,0.04,Rain,Light Rain,320,2013-07-12 03:55:00